Погода в Шиели

Погода в Шиели : погода сейчас, прогноз погоды и архив. Всё, что Вы хотите узнать о погоде в Шиели!

Хотите узнать прогноз погоды в Шиели? Тогда Вам сюда: Погода в Шиели

Поиск расширенной информации на нашем сайте:

Другие новости

Новости СМИ2

Главная страница сайта

Новости сайта

03.07.2017

Напоминаем, что на нашем специализированном сайте Метеоцентр.Азия вы можете получить высокодетализированные автоматические прогнозы погоды по пунктам России, СНГ и мира в авиационном формате (включающие направление и скорость ветра, видимость, явления погоды, количество и форму облачности, нижнюю и верхнюю границу облачности).


Погода в Шиели - сегодня

Время (UTC), дата Ветер
(°,м/с) 
Видим.   Явления Облачность Т
(°С)
Тd
(°С)
f(%) Тe
(°С)
Pmin
(гПа)
dP
(гПа)
Po
(мм)
O2
(г/м3)
Тmin Tmax R s Состояние
почвы
00 15.06.18 350 (С) 20000 м    3/0 верхняя 
[Ci fib]
+15 +7.8 62 +16  1010.3  0.5  744  283           
06 15.06.18 360 (С) 20000 м    1/0 верхняя 
[Ci fib]
+26.9 +4.1 23 +27  1011  0.4  745  273  +14.6         
09 15.06.18 100 (В) 20000 м    3/0 средняя 
[Ac lent]
+29.2 +5 22 +29  1011.1  0.4  745  271           
12 15.06.18 100 (В) 20000 м    3/0 средняя 
[Ac lent]
+29.2 +5 22 +29  1011.1  0.4  745  271           
15 15.06.18 090 (В) 20000 м    ясно 
+28.5 +9 29 +29  1011.8  0.8  746  271    +31.1       
18 15.06.18 110 (В) н/о    ясно 
+22.8 +8.2 39 +23  1012.7  0.7  746  276    +31.1       
21 15.06.18 090 (В) н/о    ясно 
+20 +6.8 42 +20  1012.8  -0.1  746  279           
00 16.06.18 080 (В) 20000 м    ясно 
+16.4 +5.3 48 +18  1013.2  0.1  746  283           
06 16.06.18 070 (В) 20000 м    ясно 
+29.8 +4.5 20 +30  1011.7  -1  746  270  +16         
09 16.06.18 тихо ()   20000 м    ясно 
+32.2 +4 17 +32  1009.4  -2.1  744  268           
12 16.06.18 тихо ()   20000 м    ясно 
+33.4 +4 16 +33  1007.9  -1.4  743  266           
15 16.06.18 тихо ()   20000 м    ясно 
+30 +9.9 29 +31  1007.2  -1  743  268    +34.2       
18 16.06.18 тихо ()   н/о    ясно 
+22.6 +11.3 49 +26  1007.1  -0.4  742  274    +34.2       
21 16.06.18 тихо ()   н/о    ясно 
+20.7 +9.8 50 +22  1005.7  -1.5  741  276           
00 17.06.18 тихо ()   20000 м    ясно 
+16.8 +7 52 +17  1005.5  -0.6  741  280           
06 17.06.18 090 (В) 20000 м    ясно 
+33.1 +4.8 17 +33  1003.3  -1  740  265  +16.4         
09 17.06.18 200 (Ю) 20000 м    3/0 верхняя 
[Ci fib]
+34.4 +4.1 15 +34  1001.9  -1.4  739  264           
12 17.06.18 290 (З) 20000 м    3/0 верхняя 
[Ci fib]
+35.8 +1.1 11 +36  1000.4  -1.3  738  263           
15 17.06.18 140 (ЮВ) 20000 м    3/0 средняя 
[Ac lent]
+30.6 +7 23 +31  999.9  -0.9  737  266    +37.1       
18 17.06.18 160 (Ю) н/о    3/0 верхняя 
[Cc]
+26 +8.8 34 +26  999.9  -0.2  737  270    +37.1       
21 17.06.18 110 (В) н/о    ясно 
+22.9 +8.6 40 +23  999.3  -0.6  737  272           
00 18.06.18 330 (СЗ) 20000 м    ясно 
+20.9 +8.4 45 +21  998.8  -0.6  736  274           
06 18.06.18 310 (СЗ) 20000 м    1/0 верхняя 
[Cc]
+30.7 +4.3 19 +31  999.6  0.1  737  266  +20.3         
09 18.06.18 320 (СЗ) 20000 м    6/0 верхняя 
[Cc]
+33 +5 17 +33  999.6  0.2  737  264           
12 18.06.18 330 (СЗ) 20000 м    8/0 верхняя 
[Ci]
+32.6 +0.9 13 +33  1000.7  738  265           
Время (UTC), дата Ветер
(°,м/с) 
Видим.   Явления Облачность Т
(°С)
Тd
(°С)
f(%) Тe
(°С)
Pmin
(гПа)
dP
(гПа)
Po
(мм)
O2
(г/м3)
Тmin Tmax R s Состояние
почвы

Для получения пояснительной информации подведите курсор к названию столбца.

ПОГОДА в Шиели - архив

Всё, что Вы хотите узнать о погоде в Шиели - удобно и подробно!

Выберите нужную дату (начиная с 1 января 2015* года) и нажмите кнопку "Найти".
Будут отображены архивные сводки погоды по пункту Шиели, начиная с указанной даты.


Отображать данные в формате CSV (для использования в таблицах Excel)


Внимание! Наш архив погоды предназначен исключительно для личного некоммерческого использования в познавательных целях. Если Вам необходимы официальные справки о состоянии погоды (для производственных, юридических, коммерческих и т.п. целей), обращайтесь в органы Росгидромета.

*Примечание: данная дата относится к архиву по метеостанциям СССР (Россия, СНГ, Балтия).
Архив по метеостанциям Зарубежной Европы и Азии (кроме Китая) хранится 10 дней, по другим регионам земного шара (Китай, Африка, Америка, Австралия, Океания) - 1 день.

Шиели - район местоположения метеостанции


Название, широта, долгота, высота метеостанции:
Шиели (Чиили) 44.2°ш. 66.8°д. 153 м над ур. моря [Казахстан]

Дополнительная информация

В oтличие oт бoльшинства пoгoдных сайтoв мы публикуем пoдрoбную метеoинфoрмацию в детальнoм прoфессиoнальнoм фoрмате.

Характеристики температуры и влажнoсти вoздуха измеряются на высoте 2 м в тени вдали oт зданий и деревьев.
Скoрoсть ветра измеряется на высoте 10 м (на урoвне рoста челoвека скoрoсть ветра ниже в 1.5-2 раза). Если метеoстанция нахoдится в гoрoде или в лесу, тo скoрoсть ветра занижена на 2-4 м/с пo сравнению с oткрытым местoм. Скoрoсть ветра над акватoриями крупных рек и oзёр, а также на вершинах хoлмoв на 2-5 м/с выше, чем в oбычных услoвиях.
Атмoсфернoе давление в разных тoчках местнoсти мoжет значительнo oтличаться oт давления на метеoстанции, в зависимoсти oт услoвий рельефа (при пoдъёме на 10 м давление пoнижается примернo на 1 мм рт.ст.).